Indianapolis, IN

11:46 PM EDT on September 19, 2019 (GMT -0400)
Indianapolis Terry

Weather History for KTYQ - May, 2019

Change the Weather History Date:

Thursday, May 9, 2019

  Actual Average (KEYE) Record (KEYE)
Temperature  
Mean Temperature 62 °F -  
Max Temperature 71 °F 69 °F 84 °F (2003)
Min Temperature 54 °F 50 °F 46 °F (1997)
Degree Days  
Heating Degree Days 2    
Growing Degree Days 12 (Base 50)    
Moisture  
Dew Point 63 °F    
Average Humidity 86    
Maximum Humidity 100    
Minimum Humidity 73    
Precipitation  
Precipitation 0.79 in - - ()
Sea Level Pressure  
Sea Level Pressure 29.81 in    
Wind  
Wind Speed 13 mph (SSW)    
Max Wind Speed 24 mph    
Max Gust Speed 31 mph    
Visibility 9 miles    
Events Rain    
Averages and records for this station are not official NWS values.
T = Trace of Precipitation, MM = Missing Value Source: NWS Daily Summary

Daily Weather History Graph

Daily Weather History Graph

Search for Another Location

Airport or City:

Astronomy

May. 09, 2019 Rise Set
Actual Time 6:35 AM EDT 8:47 PM EDT
Civil Twilight 6:05 AM EDT 9:17 PM EDT
Nautical Twilight 5:28 AM EDT 9:54 PM EDT
Astronomical Twilight 4:48 AM EDT 10:35 PM EDT
Moon 10:30 AM EDT (5/9) 12:46 AM EDT (5/9)
Length of Visible Light 15h 11m
Length of Day
14h 11m
Waxing Crescent, 24% of the Moon is Illuminated
May 9
Waxing Crescent
May 11
First Quarter
May 18
Full
May 26
Last Quarter
Jun 3
New

Hourly Weather History & Observations

Time (EDT) Temp. Dew Point Humidity Pressure Visibility Wind Dir Wind Speed Gust Speed Precip Events Conditions
12:15 AM 70.3 °F 61.9 °F 74% 29.85 in 10.0 mi SSE 9.2 mph - N/A   Clear
12:35 AM 70.2 °F 61.9 °F 75% 29.84 in 10.0 mi SSE 10.4 mph - N/A   Clear
12:55 AM 70.7 °F 61.7 °F 73% 29.83 in 10.0 mi SSE 11.5 mph - N/A   Clear
1:15 AM 70.9 °F 61.7 °F 73% 29.83 in 10.0 mi SSE 13.8 mph 19.6 mph N/A   Clear
1:35 AM 70.9 °F 61.7 °F 73% 29.82 in 10.0 mi SSE 11.5 mph - N/A   Clear
1:55 AM 70.9 °F 61.9 °F 73% 29.81 in 10.0 mi SSE 13.8 mph 19.6 mph N/A   Clear
2:15 AM 71.1 °F 62.1 °F 73% 29.80 in 10.0 mi SSE 13.8 mph 21.9 mph N/A   Clear
2:35 AM 70.9 °F 62.2 °F 74% 29.80 in 10.0 mi South 12.7 mph 23.0 mph N/A   Clear
2:55 AM 70.5 °F 62.6 °F 76% 29.80 in 10.0 mi South 11.5 mph 19.6 mph N/A   Clear
3:15 AM 70.7 °F 62.6 °F 75% 29.80 in 10.0 mi South 15.0 mph 21.9 mph N/A   Clear
3:35 AM 70.2 °F 62.6 °F 77% 29.79 in 10.0 mi South 16.1 mph 20.7 mph N/A   Clear
3:55 AM 70.3 °F 62.6 °F 76% 29.78 in 10.0 mi SSE 17.3 mph 23.0 mph N/A   Clear
4:15 AM 70.2 °F 62.8 °F 77% 29.77 in 10.0 mi SSE 18.4 mph 21.9 mph N/A   Scattered Clouds
4:35 AM 70.0 °F 62.8 °F 78% 29.76 in 10.0 mi South 15.0 mph - N/A   Scattered Clouds
4:55 AM 70.0 °F 63.0 °F 78% 29.75 in 10.0 mi SSE 15.0 mph 19.6 mph N/A   Mostly Cloudy
5:15 AM 70.0 °F 63.5 °F 80% 29.75 in 10.0 mi South 13.8 mph 20.7 mph N/A Rain Light Rain
5:35 AM 70.0 °F 63.3 °F 79% 29.74 in 10.0 mi South 13.8 mph - N/A   Mostly Cloudy
5:55 AM 69.6 °F 63.5 °F 81% 29.74 in 10.0 mi South 15.0 mph 21.9 mph N/A   Light Drizzle
6:15 AM 68.7 °F 64.4 °F 86% 29.75 in 10.0 mi South 15.0 mph - N/A Rain Rain
6:35 AM 66.6 °F 65.7 °F 97% 29.75 in 5.0 mi South 15.0 mph 21.9 mph 0.04 in Rain Rain
6:55 AM 65.8 °F 65.8 °F 100% 29.74 in 10.0 mi South 11.5 mph - 0.05 in Rain Light Rain
7:15 AM 65.8 °F 65.8 °F 100% 29.75 in 10.0 mi South 12.7 mph - N/A   Overcast
7:35 AM 66.2 °F 66.2 °F 100% 29.75 in 10.0 mi South 15.0 mph 24.2 mph N/A Rain Rain
7:55 AM 66.0 °F 66.0 °F 100% 29.75 in 10.0 mi South 13.8 mph 17.3 mph 0.01 in Rain Rain
8:15 AM 66.2 °F 66.2 °F 100% 29.76 in 10.0 mi South 15.0 mph - N/A   Overcast
8:35 AM 66.6 °F 66.4 °F 99% 29.76 in 10.0 mi South 10.4 mph - N/A   Overcast
8:55 AM 66.6 °F 66.6 °F 100% 29.76 in 10.0 mi South 15.0 mph 23.0 mph N/A   Overcast
9:15 AM 66.4 °F 66.4 °F 100% 29.77 in 10.0 mi SSW 15.0 mph - N/A   Overcast
9:35 AM 66.7 °F 66.7 °F 100% 29.77 in 10.0 mi SSW 13.8 mph - N/A   Overcast
9:55 AM 67.3 °F 66.9 °F 99% 29.77 in 10.0 mi SSW 16.1 mph 21.9 mph N/A   Overcast
10:15 AM 67.5 °F 66.6 °F 97% 29.78 in 10.0 mi SW 21.9 mph 26.5 mph N/A   Overcast
10:35 AM 68.0 °F 66.6 °F 95% 29.79 in 10.0 mi SW 16.1 mph 28.8 mph N/A   Overcast
10:55 AM 68.7 °F 66.9 °F 94% 29.78 in 10.0 mi SW 17.3 mph 23.0 mph N/A   Mostly Cloudy
11:15 AM 68.4 °F 66.2 °F 93% 29.79 in 10.0 mi SW 19.6 mph 23.0 mph N/A   Mostly Cloudy
11:35 AM 68.9 °F 65.8 °F 90% 29.80 in 10.0 mi SSW 18.4 mph 25.3 mph N/A   Mostly Cloudy
11:55 AM 69.8 °F 65.3 °F 86% 29.80 in 10.0 mi SW 18.4 mph 27.6 mph N/A   Mostly Cloudy
12:15 PM 70.5 °F 65.1 °F 83% 29.81 in 10.0 mi SW 17.3 mph 28.8 mph N/A   Scattered Clouds
12:35 PM 70.3 °F 64.6 °F 82% 29.81 in 10.0 mi SW 17.3 mph 26.5 mph N/A   Mostly Cloudy
12:55 PM 70.9 °F 65.1 °F 82% 29.82 in 10.0 mi SW 19.6 mph 23.0 mph N/A   Mostly Cloudy
1:15 PM 71.1 °F 63.9 °F 78% 29.82 in 10.0 mi SW 24.2 mph 31.1 mph N/A   Mostly Cloudy
1:35 PM 71.1 °F 63.9 °F 78% 29.83 in 10.0 mi SW 17.3 mph 24.2 mph N/A   Mostly Cloudy
2:00 PM 70.0 °F 63.7 °F 80% 29.82 in 10.0 mi SW 17.3 mph 24.2 mph N/A   Overcast
2:15 PM 69.4 °F 62.6 °F 79% 29.82 in 10.0 mi SW 19.6 mph 28.8 mph N/A   Overcast
2:55 PM 71.1 °F 63.9 °F 78% 29.83 in 10.0 mi WSW 20.7 mph 26.5 mph N/A   Mostly Cloudy
3:15 PM 70.7 °F 63.7 °F 78% 29.83 in 10.0 mi SW 15.0 mph - N/A   Mostly Cloudy
3:35 PM 71.6 °F 64.4 °F 78% 29.83 in 10.0 mi SW 13.8 mph - N/A   Mostly Cloudy
4:55 PM 70.7 °F 63.7 °F 78% 29.83 in 10.0 mi SSW 16.1 mph 20.7 mph N/A   Mostly Cloudy
5:15 PM 69.8 °F 63.7 °F 81% 29.83 in 10.0 mi SSW 10.4 mph - N/A   Overcast
5:35 PM 70.3 °F 64.9 °F 83% 29.83 in 10.0 mi SSW 11.5 mph - N/A   Overcast
5:55 PM 70.5 °F 63.9 °F 79% 29.82 in 10.0 mi SW 13.8 mph 19.6 mph N/A   Mostly Cloudy
6:15 PM 69.8 °F 63.7 °F 81% 29.82 in 10.0 mi SSW 10.4 mph - N/A   Mostly Cloudy
6:35 PM 71.6 °F 63.5 °F 76% 29.83 in 10.0 mi SSW 12.7 mph 19.6 mph N/A   Overcast
6:55 PM 70.9 °F 63.3 °F 77% 29.83 in 10.0 mi SSW 15.0 mph - N/A   Overcast
7:15 PM 70.0 °F 63.0 °F 78% 29.82 in 10.0 mi SSW 13.8 mph - N/A   Mostly Cloudy
7:35 PM 69.3 °F 62.6 °F 79% 29.82 in 10.0 mi SSW 9.2 mph - N/A   Mostly Cloudy
7:55 PM 68.5 °F 63.3 °F 83% 29.82 in 10.0 mi SSW 13.8 mph - N/A   Overcast
8:15 PM 68.2 °F 63.3 °F 84% 29.83 in 10.0 mi West 9.2 mph - N/A   Overcast
8:35 PM 62.6 °F 62.6 °F 100% 29.84 in 0.5 mi WNW 5.8 mph - 0.59 in Rain Heavy Rain
8:55 PM 61.2 °F 61.2 °F 100% 29.86 in 3.0 mi WNW 11.5 mph 18.4 mph 0.66 in Rain Heavy Rain
9:15 PM 59.5 °F 59.5 °F 100% 29.87 in 3.0 mi WNW 6.9 mph - 0.04 in Rain Rain
9:35 PM 58.5 °F 58.5 °F 100% 29.88 in 7.0 mi WNW 9.2 mph - 0.05 in Rain Light Rain
9:55 PM 58.1 °F 58.1 °F 100% 29.88 in 5.0 mi WNW 8.1 mph - 0.06 in Rain Light Rain
10:15 PM 57.2 °F 57.2 °F 100% 29.89 in 10.0 mi WNW 5.8 mph - 0.01 in   Overcast
10:35 PM 56.8 °F 56.8 °F 100% 29.89 in 7.0 mi NW 9.2 mph - 0.01 in   Overcast
10:55 PM 55.4 °F 55.4 °F 100% 29.92 in 10.0 mi West 12.7 mph 18.4 mph 0.01 in   Overcast
11:15 PM 54.9 °F 54.9 °F 100% 29.93 in 10.0 mi NW 10.4 mph - N/A   Overcast
11:35 PM 54.3 °F 54.3 °F 100% 29.94 in 10.0 mi WNW 6.9 mph - N/A   Overcast
11:55 PM 54.0 °F 54.0 °F 100% 29.93 in 10.0 mi NW 8.1 mph - N/A   Overcast